• In Hungary
  • List of Countries
  • For 7 days
  • Water Temperature
  • Satellite Maps
  • Weather Map
  • News
  • Weather Widgets
  • user-avatar
    Login

    Hourly Weather Kukovo

    Today, 16 July, Monday

    Time Temperature Precipitation Wind Pressure Humidity
    00:00 +19°C° 0.1 mm 1 mps 740 mmHg 95%
    01:00 +18°C° 0.1 mm 2 mps 740 mmHg 96%
    02:00 +18°C° 0.1 mm 2 mps 740 mmHg 97%
    03:00 +18°C° 0 mm 2 mps 741 mmHg 96%
    04:00 +18°C° 0 mm 2 mps 741 mmHg 96%
    05:00 +18°C° 0 mm 2 mps 741 mmHg 96%
    06:00 +20°C° 0.1 mm 3 mps 741 mmHg 92%
    07:00 +21°C° 0.1 mm 3 mps 741 mmHg 88%
    08:00 +24°C° 0.1 mm 3 mps 741 mmHg 83%
    09:00 +25°C° 0.7 mm 3 mps 741 mmHg 80%
    10:00 +26°C° 0.7 mm 4 mps 741 mmHg 76%
    11:00 +26°C° 0.7 mm 4 mps 741 mmHg 72%
    12:00 +27°C° 0.3 mm 4 mps 740 mmHg 70%
    13:00 +27°C° 0.3 mm 4 mps 740 mmHg 68%
    14:00 +28°C° 0.3 mm 4 mps 740 mmHg 65%
    15:00 +27°C° 0.3 mm 4 mps 740 mmHg 68%
    16:00 +27°C° 0.3 mm 4 mps 740 mmHg 72%
    17:00 +26°C° 0.3 mm 3 mps 740 mmHg 75%
    18:00 +25°C° 0.1 mm 3 mps 740 mmHg 78%
    19:00 +24°C° 0.1 mm 3 mps 740 mmHg 81%
    20:00 +21°C° 0.1 mm 3 mps 740 mmHg 84%
    21:00 +21°C° 0 mm 3 mps 740 mmHg 84%
    22:00 +20°C° 0 mm 3 mps 740 mmHg 85%
    23:00 +20°C° 0 mm 3 mps 740 mmHg 85%

    Tomorrow, 17 July, Tuesday

    Time Temperature Precipitation Wind Pressure Humidity
    00:00 +19°C° 0 mm 3 mps 740 mmHg 87%
    01:00 +19°C° 0 mm 3 mps 740 mmHg 88%
    02:00 +19°C° 0 mm 3 mps 739 mmHg 90%
    03:00 +19°C° 0 mm 3 mps 739 mmHg 89%
    04:00 +19°C° 0 mm 4 mps 739 mmHg 89%
    05:00 +19°C° 0 mm 4 mps 739 mmHg 89%
    06:00 +21°C° 0 mm 4 mps 739 mmHg 83%
    07:00 +22°C° 0 mm 5 mps 739 mmHg 78%
    08:00 +25°C° 0 mm 5 mps 739 mmHg 72%
    09:00 +26°C° 0 mm 5 mps 739 mmHg 68%
    10:00 +27°C° 0 mm 6 mps 738 mmHg 65%
    11:00 +28°C° 0 mm 6 mps 738 mmHg 61%
    12:00 +28°C° 0 mm 6 mps 738 mmHg 61%
    13:00 +29°C° 0 mm 6 mps 738 mmHg 61%
    14:00 +29°C° 0 mm 6 mps 737 mmHg 61%
    15:00 +28°C° 0.4 mm 6 mps 737 mmHg 66%
    16:00 +27°C° 0.4 mm 5 mps 737 mmHg 72%
    17:00 +26°C° 0.4 mm 5 mps 737 mmHg 77%
    18:00 +25°C° 0.2 mm 5 mps 737 mmHg 81%
    19:00 +23°C° 0.2 mm 4 mps 737 mmHg 84%
    20:00 +22°C° 0.2 mm 4 mps 737 mmHg 88%
    21:00 +22°C° 0 mm 4 mps 737 mmHg 90%
    22:00 +21°C° 0 mm 4 mps 737 mmHg 92%
    23:00 +21°C° 0 mm 4 mps 737 mmHg 94%

    Day after tomorrow, 18 July, Wednesday

    Time Temperature Precipitation Wind Pressure Humidity
    00:00 +21°C° 0 mm 4 mps 737 mmHg 95%
    01:00 +20°C° 0 mm 4 mps 737 mmHg 95%
    02:00 +20°C° 0 mm 3 mps 737 mmHg 96%
    03:00 +20°C° 0.1 mm 4 mps 737 mmHg 96%
    04:00 +20°C° 0.1 mm 4 mps 737 mmHg 95%
    05:00 +20°C° 0.1 mm 4 mps 737 mmHg 94%
    06:00 +21°C° 0 mm 4 mps 737 mmHg 90%
    07:00 +22°C° 0 mm 5 mps 737 mmHg 86%
    08:00 +23°C° 0 mm 5 mps 737 mmHg 82%
    09:00 +25°C° 0 mm 5 mps 737 mmHg 76%
    10:00 +26°C° 0 mm 6 mps 737 mmHg 69%
    11:00 +27°C° 0 mm 6 mps 737 mmHg 63%
    12:00 +28°C° 0.2 mm 6 mps 737 mmHg 62%
    13:00 +28°C° 0.2 mm 6 mps 737 mmHg 62%
    14:00 +28°C° 0.2 mm 6 mps 737 mmHg 61%
    15:00 +27°C° 0.4 mm 5 mps 737 mmHg 67%
    16:00 +26°C° 0.4 mm 5 mps 737 mmHg 72%
    17:00 +25°C° 0.4 mm 4 mps 737 mmHg 77%
    18:00 +23°C° 0.1 mm 4 mps 737 mmHg 81%
    19:00 +22°C° 0.1 mm 4 mps 737 mmHg 85%
    20:00 +21°C° 0.1 mm 4 mps 737 mmHg 88%
    21:00 +20°C° 0.1 mm 4 mps 737 mmHg 89%
    22:00 +20°C° 0.1 mm 4 mps 737 mmHg 90%
    23:00 +19°C° 0.1 mm 4 mps 737 mmHg 91%

    19 July, Thursday

    Time Temperature Precipitation Wind Pressure Humidity
    00:00 +19°C° 0.2 mm 4 mps 737 mmHg 93%
    01:00 +18°C° 0.2 mm 3 mps 737 mmHg 94%
    02:00 +18°C° 0.2 mm 3 mps 737 mmHg 96%
    03:00 +18°C° 0.2 mm 3 mps 737 mmHg 96%
    04:00 +18°C° 0.2 mm 3 mps 737 mmHg 96%
    05:00 +18°C° 0.2 mm 3 mps 737 mmHg 96%
    06:00 +19°C° 0.1 mm 3 mps 737 mmHg 96%
    07:00 +19°C° 0.1 mm 3 mps 737 mmHg 95%
    08:00 +20°C° 0.1 mm 2 mps 737 mmHg 95%
    09:00 +21°C° 0.3 mm 2 mps 738 mmHg 91%
    10:00 +23°C° 0.3 mm 2 mps 738 mmHg 87%
    11:00 +24°C° 0.3 mm 2 mps 738 mmHg 84%
    12:00 +25°C° 0.6 mm 2 mps 738 mmHg 82%
    13:00 +25°C° 0.6 mm 2 mps 738 mmHg 81%
    14:00 +26°C° 0.6 mm 3 mps 738 mmHg 80%
    15:00 +26°C° 0.7 mm 3 mps 738 mmHg 81%
    16:00 +26°C° 0.7 mm 2 mps 738 mmHg 82%
    17:00 +26°C° 0.7 mm 2 mps 738 mmHg 84%
    18:00 +24°C° 0.2 mm 2 mps 738 mmHg 87%
    19:00 +23°C° 0.2 mm 2 mps 738 mmHg 91%
    20:00 +21°C° 0.2 mm 2 mps 738 mmHg 94%
    21:00 +20°C° 0.2 mm 2 mps 738 mmHg 95%
    22:00 +20°C° 0.2 mm 2 mps 738 mmHg 95%
    23:00 +19°C° 0.2 mm 2 mps 738 mmHg 96%

    20 July, Friday

    Time Temperature Precipitation Wind Pressure Humidity
    00:00 +18°C° 0 mm 2 mps 738 mmHg 96%
    01:00 +18°C° 0 mm 2 mps 738 mmHg 97%
    02:00 +18°C° 0 mm 2 mps 738 mmHg 97%
    03:00 +18°C° 0 mm 2 mps 738 mmHg 97%
    04:00 +18°C° 0 mm 2 mps 738 mmHg 96%
    05:00 +18°C° 0 mm 2 mps 739 mmHg 96%
    06:00 +20°C° 0 mm 2 mps 739 mmHg 92%
    07:00 +21°C° 0 mm 2 mps 739 mmHg 87%
    08:00 +24°C° 0 mm 3 mps 739 mmHg 83%
    09:00 +25°C° 0.5 mm 3 mps 739 mmHg 80%
    10:00 +26°C° 0.5 mm 3 mps 738 mmHg 77%
    11:00 +27°C° 0.5 mm 3 mps 738 mmHg 74%
    12:00 +27°C° 0.6 mm 3 mps 738 mmHg 75%
    13:00 +27°C° 0.6 mm 3 mps 738 mmHg 76%
    14:00 +27°C° 0.6 mm 3 mps 738 mmHg 77%
    15:00 +27°C° 0.3 mm 3 mps 738 mmHg 77%
    16:00 +27°C° 0.3 mm 3 mps 738 mmHg 77%
    17:00 +27°C° 0.3 mm 3 mps 738 mmHg 77%
    18:00 +26°C° 0.5 mm 2 mps 738 mmHg 82%
    19:00 +24°C° 0.5 mm 2 mps 738 mmHg 87%
    20:00 +23°C° 0.5 mm 2 mps 738 mmHg 93%
    21:00 +21°C° 0.1 mm 2 mps 738 mmHg 94%
    22:00 +22°C° 0.1 mm 1 mps 738 mmHg 95%
    23:00 +21°C° 0.1 mm 1 mps 738 mmHg 96%

    21 July, Saturday

    Time Temperature Precipitation Wind Pressure Humidity
    00:00 +21°C° 0 mm 1 mps 738 mmHg 96%
    01:00 +21°C° 0 mm 1 mps 738 mmHg 96%
    02:00 +20°C° 0 mm 1 mps 738 mmHg 97%
    03:00 +21°C° 0.6 mm 1 mps 738 mmHg 97%
    04:00 +21°C° 0.6 mm 1 mps 738 mmHg 97%
    05:00 +21°C° 0.6 mm 1 mps 738 mmHg 97%
    06:00 +22°C° 0 mm 1 mps 738 mmHg 93%
    07:00 +24°C° 0 mm 1 mps 738 mmHg 89%
    08:00 +25°C° 0 mm 2 mps 739 mmHg 85%
    09:00 +27°C° 0 mm 2 mps 739 mmHg 77%
    10:00 +28°C° 0 mm 2 mps 739 mmHg 70%
    11:00 +29°C° 0 mm 3 mps 739 mmHg 62%
    12:00 +30°C° 0.1 mm 3 mps 739 mmHg 61%
    13:00 +30°C° 0.1 mm 3 mps 738 mmHg 61%
    14:00 +30°C° 0.1 mm 3 mps 738 mmHg 60%
    15:00 +30°C° 0.5 mm 2 mps 738 mmHg 65%
    16:00 +29°C° 0.5 mm 2 mps 738 mmHg 69%
    17:00 +29°C° 0.5 mm 2 mps 738 mmHg 74%
    18:00 +27°C° 0.3 mm 2 mps 738 mmHg 79%
    19:00 +25°C° 0.3 mm 2 mps 738 mmHg 85%
    20:00 +24°C° 0.3 mm 2 mps 738 mmHg 90%
    21:00 +23°C° 0.8 mm 2 mps 738 mmHg 91%
    22:00 +21°C° 0.8 mm 2 mps 738 mmHg 93%
    23:00 +22°C° 0.8 mm 1 mps 738 mmHg 94%
    Show more